GFSNW_prec_cloud_045.txt.gz
Cloud_Cover
100 100 100 100 78 5 72 100 100 96 100 100 78 97 100 100 100 100 100 100 100 100 5 35 41 2 0 5 97 100 100 100 100 100 100 88 16 68 71 84 68 94 4 0
100 100 100 100 92 16 94 100 100 97 100 69 8 88 100 100 100 100 100 98 100 43 25 100 5 2 42 67 85 54 82 100 100 100 100 93 5 5 6 5 20 0 2 0
100 100 100 100 100 7 64 100 100 98 96 40 89 56 99 98 100 100 99 97 100 100 100 65 94 4 100 96 5 36 30 32 90 100 91 5 98 6 2 3 5 5 5 0
100 100 100 100 100 100 76 100 100 7 100 74 100 58 76 100 100 100 100 100 100 100 35 29 100 84 100 100 96 23 100 100 100 100 95 2 23 11 6 24 87 95 9 0
100 100 100 100 100 64 100 100 66 71 90 99 100 100 100 100 100 100 100 100 100 100 25 5 6 94 14 57 88 5 29 90 100 100 4 2 10 1 0 4 1 0 1 4
100 100 100 100 100 75 100 100 67 52 100 100 100 100 100 100 100 100 100 100 100 76 59 2 99 68 100 100 92 37 14 24 47 10 2 5 5 0 0 0 0 0 0 1
90 100 100 100 100 67 100 99 98 81 8 81 29 100 100 100 100 88 100 100 100 100 20 2 2 83 100 98 79 5 13 5 8 5 5 47 0 0 0 0 0 0 5 5
100 100 100 90 100 8 97 92 100 92 98 3 4 2 0 44 33 14 47 72 28 91 26 5 95 68 99 100 100 20 5 5 9 5 5 3 0 3 0 0 0 0 5 0
100 100 100 39 6 24 82 100 100 100 100 4 0 0 0 0 5 5 7 5 5 100 86 97 79 25 100 88 94 54 8 5 10 52 5 4 0 5 0 2 3 5 0 0
100 100 100 42 79 32 100 100 100 100 99 84 17 0 0 1 1 12 5 59 88 95 85 100 95 32 86 98 98 6 34 56 26 28 31 4 5 2 3 5 5 4 3 5
100 91 44 36 7 5 100 94 100 100 100 96 55 5 0 0 8 4 6 100 100 100 100 92 21 80 96 73 100 5 7 44 15 59 83 8 5 5 5 5 5 3 5 5
98 46 15 5 5 16 100 98 14 96 100 62 40 36 0 0 3 4 37 100 100 100 100 100 100 100 99 85 100 90 29 66 33 5 5 5 7 12 30 9 5 5 5 6
5 0 0 1 28 7 35 100 97 100 100 100 99 20 84 6 100 100 7 92 100 99 100 100 100 100 100 100 100 93 94 32 55 5 5 5 30 49 53 63 21 11 22 71
5 4 40 57 30 100 100 100 100 100 100 100 100 97 100 88 100 100 72 100 100 100 100 100 100 100 100 100 100 100 94 7 16 5 5 5 65 54 57 87 32 30 72 56
6 5 28 20 94 93 100 100 100 100 100 100 100 100 100 61 19 99 100 100 100 100 100 100 100 100 100 100 89 85 86 33 9 56 5 9 18 46 37 93 95 100 94 75
2 11 98 100 100 100 100 100 100 100 100 100 100 100 100 29 100 100 85 100 100 100 100 100 100 100 100 100 73 100 53 24 12 33 70 100 100 28 5 43 61 34 9 29
96 100 100 100 100 100 100 100 100 100 100 100 100 100 100 99 95 100 100 100 100 38 77 100 100 100 100 100 66 100 98 56 21 8 66 88 100 52 38 27 11 5 8 42
100 100 100 100 100 100 100 100 100 100 100 100 100 100 92 50 96 100 100 100 100 100 85 100 100 100 100 34 100 100 100 100 80 62 38 49 72 86 67 62 29 64 68 79
100 100 100 100 100 100 100 100 100 100 88 100 100 100 100 98 72 99 100 100 100 100 100 100 100 100 42 99 100 100 100 100 100 100 80 12 35 61 77 74 80 70 100 100
100 100 100 100 100 100 100 100 100 100 100 100 100 100 100 100 100 100 75 100 100 100 100 100 100 100 100 100 100 100 67 98 76 49 16 56 97 100 100 52 56 93 100 99
100 100 100 100 100 100 93 100 94 100 100 100 100 100 100 100 90 100 94 94 87 100 100 100 100 100 100 99 100 100 100 99 68 91 73 99 96 100 100 100 92 86 77 99
100 100 100 84 100 100 100 99 96 99 100 100 100 100 100 100 98 93 95 80 98 93 100 100 100 100 100 100 100 100 100 100 100 100 100 100 100 100 99 100 100 100 100 100
100 100 100 92 97 91 58 73 100 100 100 100 98 98 98 87 74 78 93 70 72 57 100 100 100 100 100 100 100 100 100 100 100 100 100 100 96 100 100 100 100 100 100 100
99 100 99 100 100 100 100 100 100 100 100 100 100 100 100 100 96 100 100 100 95 82 99 100 100 100 100 100 100 100 100 100 100 100 100 100 100 100 100 100 100 100 100 100
100 100 100 100 100 100 100 100 100 100 100 100 100 100 100 100 96 100 100 100 89 99 100 100 100 100 100 100 100 100 100 100 100 100 100 100 100 100 100 100 100 100 100 100
100 100 100 100 100 100 100 100 100 100 100 100 100 100 100 100 100 100 100 100 100 100 100 100 100 100 100 100 100 100 100 100 100 100 100 100 100 100 100 100 100 100 100 100
100 100 100 100 100 100 100 100 100 100 100 100 100 100 100 100 100 100 100 100 100 100 100 100 100 100 100 100 100 100 100 100 100 100 100 100 100 100 100 100 100 100 100 96

GFSNW_prec_cloud_048.txt.gz
Cloud_Cover
100 100 100 100 100 100 100 68 92 88 32 100 97 97 75 100 100 100 100 98 44 54 5 5 18 99 70 4 0 0 12 12 60 90 95 55 100 65 7 10 79 91 60 6
100 93 100 100 100 100 33 100 87 60 32 99 22 90 100 100 100 100 100 97 27 21 9 61 100 100 32 2 47 0 61 46 37 75 45 94 100 96 76 11 97 100 30 1
78 100 90 100 100 100 79 100 61 100 100 24 81 56 100 91 100 38 16 86 11 81 100 100 100 95 10 5 42 30 40 62 9 100 87 97 10 53 99 52 42 5 3 2
100 93 86 100 100 100 64 68 28 32 96 100 99 77 100 100 95 15 81 50 76 100 100 100 100 100 100 21 7 84 88 100 5 23 5 21 74 100 100 69 2 52 2 12
100 91 5 100 100 100 98 60 26 5 5 61 100 96 98 100 100 100 100 100 100 100 100 100 100 100 100 11 2 57 22 100 73 96 80 100 88 100 44 0 1 5 45 5
99 90 17 100 100 100 100 42 43 22 5 70 97 87 98 100 100 100 100 100 100 100 100 100 100 94 100 54 41 5 5 33 32 100 100 88 77 23 0 0 5 0 11 6
96 19 100 100 100 100 97 43 73 96 11 84 17 22 100 100 100 100 100 100 100 100 100 100 100 19 56 58 95 5 5 5 45 100 15 13 17 4 4 0 2 0 0 0
4 14 100 100 100 100 96 54 97 100 73 5 57 93 89 90 100 84 100 100 100 100 100 100 100 39 5 10 21 36 86 14 9 6 5 7 5 5 2 3 2 4 4 0
100 100 100 93 100 100 100 86 100 100 91 26 68 49 95 100 100 100 100 100 100 100 100 100 87 5 10 100 100 97 100 90 5 12 5 5 7 3 0 2 5 11 5 2
87 97 85 96 100 100 100 100 100 100 100 96 15 5 11 5 33 31 26 78 99 93 100 25 6 28 94 69 48 68 100 100 6 25 5 5 5 5 5 5 4 3 5 3
64 5 45 23 44 100 100 100 98 100 100 40 28 33 5 1 0 2 3 59 96 90 67 52 63 100 100 12 94 100 85 75 46 14 14 15 37 22 5 5 1 5 5 5
71 90 100 100 100 100 100 99 100 100 100 100 68 6 10 4 0 0 2 4 1 5 100 100 100 100 84 87 100 100 22 96 34 5 6 98 22 72 5 4 5 5 5 5
100 100 100 100 100 100 54 46 100 100 100 100 89 49 6 2 0 0 0 9 5 5 100 100 100 100 100 100 100 100 13 29 73 5 8 74 83 54 17 5 5 5 5 5
100 100 100 100 100 100 81 6 98 100 99 100 100 86 11 5 0 0 0 14 99 9 92 98 100 100 100 100 100 100 100 85 85 24 21 12 26 32 5 5 5 10 60 39
100 77 99 100 100 100 75 3 15 69 88 100 98 71 5 3 0 0 1 96 100 32 31 93 100 100 100 100 100 100 100 100 93 26 5 5 52 34 64 66 82 52 35 46
79 88 78 52 22 87 87 99 69 28 69 100 100 68 75 99 98 100 46 86 100 99 83 70 100 100 100 100 100 100 100 100 100 61 9 5 14 59 94 100 100 100 100 100
25 0 5 5 5 43 34 6 20 62 69 100 100 100 100 100 100 96 94 85 100 100 100 98 100 100 100 100 100 100 100 100 100 54 92 48 7 38 31 80 93 87 78 99
3 4 2 5 36 100 100 100 100 100 100 100 100 100 100 100 100 100 100 100 100 100 100 100 100 100 99 90 100 100 100 100 100 92 89 100 100 100 100 100 100 100 94 52
84 100 100 100 100 100 100 100 100 100 100 100 100 100 100 100 100 100 100 100 100 100 100 100 100 100 100 100 100 100 100 100 100 100 75 100 100 100 100 100 100 90 89 70
100 100 100 100 100 100 100 100 100 100 100 100 100 100 100 100 100 100 100 100 100 100 100 100 100 100 100 100 100 100 100 100 100 100 62 8 94 100 100 100 100 93 100 98
100 100 100 100 100 100 100 100 100 100 100 100 100 100 100 100 100 100 100 100 100 100 100 100 100 99 100 100 100 100 100 100 100 100 66 91 100 100 100 100 100 100 99 100
100 100 100 100 100 100 100 100 100 100 100 100 100 100 100 100 98 100 72 67 100 100 100 100 100 100 100 100 100 100 100 100 100 100 100 100 100 100 100 100 100 100 100 100
100 100 100 100 100 100 100 100 100 99 100 100 100 100 100 97 79 100 100 95 72 91 100 100 100 100 100 100 100 100 100 100 100 100 100 100 100 100 100 100 100 100 100 100
100 100 100 100 100 100 100 100 100 100 100 100 100 100 100 100 100 100 100 100 100 100 92 100 100 100 100 100 100 100 100 100 100 100 100 100 100 100 100 100 100 100 100 100
100 100 100 100 100 100 100 100 100 100 100 100 100 100 100 100 100 100 93 100 97 99 100 100 100 100 100 100 100 100 100 100 100 100 98 100 100 100 100 100 100 100 100 100
97 100 100 100 100 100 100 100 100 100 100 100 93 100 100 100 100 100 100 100 100 100 100 100 100 100 100 100 100 100 100 100 100 100 100 100 100 100 100 100 100 100 100 100
91 100 100 100 100 100 100 100 100 100 100 100 100 100 100 100 100 100 100 100 100 100 100 100 100 100 100 100 100 100 100 100 100 100 100 100 100 100 100 100 100 100 100 100

GFSNW_prec_cloud_054.txt.gz
Cloud_Cover
95 5 4 9 100 100 100 100 93 98 6 100 100 100 93 100 100 100 98 70 54 100 69 29 100 83 5 2 5 5 0 0 0 0 1 5 5 4 6 32 30 100 98 45
97 5 5 54 100 100 100 100 97 98 5 96 95 100 100 100 100 100 100 100 100 100 100 98 97 99 5 28 16 5 0 0 0 0 0 0 5 1 5 30 100 99 32 68
100 42 5 6 100 90 100 100 100 100 89 2 38 100 100 100 100 100 100 100 100 100 100 100 100 100 12 100 20 5 5 5 0 0 1 4 0 0 4 86 84 26 27 33
100 100 56 40 93 98 100 100 94 22 100 91 31 100 100 100 100 100 100 100 100 100 100 100 100 100 100 100 49 5 5 5 5 0 2 0 0 0 0 1 35 84 44 51
100 100 77 100 100 100 100 100 87 69 5 7 88 94 100 100 100 100 100 100 100 100 100 100 100 100 100 60 28 100 5 5 5 5 3 0 5 0 0 0 4 5 5 92
100 100 98 97 100 100 100 100 48 42 8 98 29 49 100 100 100 100 100 100 100 100 100 100 100 100 44 100 100 93 33 63 55 5 1 4 7 97 9 1 0 5 17 98
100 100 100 97 100 100 100 92 22 39 6 95 16 27 100 100 100 100 100 100 100 100 100 100 100 100 100 91 100 18 100 100 88 52 22 25 76 100 68 89 9 13 98 100
100 100 100 93 100 100 99 99 99 9 42 5 73 32 14 100 100 100 100 100 100 100 100 100 100 100 100 100 100 100 100 100 65 5 53 4 21 100 38 5 76 70 5 0
100 100 100 100 100 100 59 100 84 20 11 18 5 8 5 11 100 100 100 100 100 100 99 92 90 97 100 100 100 100 100 100 100 86 7 3 5 5 17 6 98 3 0 0
100 100 100 100 96 98 68 100 99 98 100 66 10 5 5 4 6 61 100 100 100 100 75 86 100 100 100 100 100 100 100 100 100 71 5 9 67 79 9 5 44 2 0 0
100 100 100 100 67 72 85 100 100 100 83 84 93 16 5 5 10 5 82 91 5 36 12 18 96 100 100 100 100 100 100 100 100 98 3 80 93 99 89 55 5 5 5 5
100 100 100 95 100 100 92 100 100 100 100 28 100 34 5 36 42 12 37 5 5 6 10 52 32 100 100 100 100 100 100 100 100 84 22 96 100 100 100 100 5 5 5 5
100 100 100 100 100 66 3 45 100 100 87 83 73 5 67 46 5 11 5 5 5 5 2 17 16 5 25 49 100 100 100 100 100 83 78 100 100 89 100 100 100 100 99 39
99 39 77 100 100 82 9 100 100 100 82 100 94 29 4 24 5 46 9 5 5 2 2 99 100 1 5 23 94 99 62 89 100 100 100 100 100 71 100 100 100 100 100 100
100 100 97 100 87 2 100 100 100 100 100 27 21 100 88 50 29 42 24 5 5 18 47 100 26 3 4 26 66 7 92 100 100 100 100 100 100 100 100 100 100 100 100 100
99 66 78 92 75 80 100 100 100 100 11 18 17 50 58 98 56 99 99 20 84 76 86 44 5 0 6 88 5 6 100 100 100 100 100 100 100 100 100 100 100 100 100 99
57 66 100 100 100 100 100 100 100 85 5 80 46 56 5 97 100 100 100 90 99 91 16 43 77 57 4 5 4 98 100 100 100 100 100 100 100 100 92 100 100 100 100 100
72 10 75 100 94 100 97 91 80 32 80 99 43 76 70 40 100 100 100 100 66 55 48 46 47 53 31 6 87 100 100 100 100 100 100 100 100 100 99 100 100 100 100 100
98 97 100 100 100 100 100 76 63 100 62 96 100 100 97 62 100 100 100 100 94 91 100 91 29 98 28 60 100 100 100 100 100 100 100 99 100 100 100 100 100 100 100 100
54 69 99 100 100 82 20 92 100 91 71 89 100 48 100 43 99 100 100 100 100 100 84 98 94 62 4 6 12 92 100 100 100 100 100 100 94 100 74 100 100 99 100 97
18 22 70 28 17 65 100 100 100 100 100 100 57 90 100 75 94 100 100 97 100 100 70 95 99 99 100 100 100 100 100 100 100 100 100 80 68 94 96 78 100 100 99 99
100 76 90 100 100 100 100 100 100 100 99 100 100 100 100 99 90 100 100 100 100 100 100 100 100 100 100 100 100 100 100 100 100 98 100 100 99 85 82 100 100 100 100 100
100 100 100 100 100 100 100 99 100 100 100 100 100 100 100 100 100 100 100 100 100 100 100 100 100 100 100 100 100 100 100 100 100 100 99 100 100 100 100 100 100 100 100 100
100 100 99 100 100 100 100 100 100 100 100 100 100 100 100 100 100 100 100 100 100 100 100 100 100 100 100 100 100 100 100 100 100 100 100 100 100 100 100 100 100 100 100 100
100 100 100 100 100 100 100 100 100 100 100 100 100 100 100 100 100 100 100 100 100 100 100 100 100 100 100 100 100 100 100 100 100 100 100 100 100 100 100 100 100 100 100 100
100 100 100 100 100 100 100 100 100 100 100 100 100 100 100 100 100 100 100 100 100 100 100 100 100 100 100 100 100 100 100 100 100 100 100 100 100 100 100 100 100 100 100 100
100 100 100 100 100 100 100 100 100 100 100 100 100 100 100 100 100 100 100 100 100 100 100 100 100 100 100 100 100 100 100 100 100 100 100 100 100 100 100 100 100 100 100 100

GFSNW_prec_cloud_057.txt.gz
Cloud_Cover
100 100 100 100 5 88 100 100 100 98 5 100 100 100 69 71 100 100 100 100 100 100 100 98 92 100 100 5 79 80 5 5 0 0 0 5 5 5 0 5 68 100 100 100
100 100 100 100 47 39 100 100 100 99 0 100 51 43 99 24 92 100 100 100 100 100 100 97 100 100 98 91 39 65 5 5 5 0 0 0 4 5 3 25 5 58 100 100
100 100 100 100 99 29 100 100 100 100 68 6 5 60 76 55 36 100 100 100 100 100 100 100 100 100 100 87 99 78 21 5 5 3 0 0 0 0 5 2 1 5 98 81
100 100 100 100 100 100 100 96 100 42 100 100 5 5 5 83 97 100 100 100 100 100 100 100 100 100 100 100 76 52 66 67 5 2 4 2 0 0 2 5 4 1 79 83
100 100 100 100 100 100 100 100 89 5 15 94 100 98 5 76 100 99 100 100 100 100 100 100 100 100 100 100 96 100 100 8 5 5 5 5 5 1 3 4 5 0 3 12
100 100 100 100 100 100 100 66 4 5 4 100 99 14 50 100 100 100 100 100 100 100 100 100 100 100 100 100 100 100 97 84 89 27 5 5 98 0 0 5 4 1 1 4
100 100 100 100 100 31 100 93 5 74 72 65 78 10 100 100 100 100 100 100 100 100 100 100 100 100 100 100 100 63 100 23 98 34 53 33 14 1 0 5 5 5 7 52
100 100 100 100 100 96 100 76 5 5 100 6 20 6 96 100 97 100 100 100 100 100 100 100 100 100 100 100 100 44 82 100 100 94 54 98 100 3 0 0 43 4 6 11
100 100 100 100 100 100 100 100 26 18 93 13 5 6 22 100 100 98 100 100 100 100 100 100 100 100 100 90 81 100 100 100 98 95 9 83 100 100 5 0 97 2 0 4
100 100 100 100 100 100 100 99 84 6 96 99 14 25 28 24 100 100 98 100 100 100 100 100 89 100 100 98 100 100 100 100 100 100 42 80 100 100 77 2 40 70 5 5
100 100 100 100 100 100 100 100 97 50 99 99 87 33 5 15 100 76 100 100 100 100 100 100 66 47 100 100 100 100 100 100 100 100 88 99 92 23 44 14 83 30 33 46
100 100 100 100 100 100 100 100 94 100 77 99 100 99 17 6 99 92 100 100 100 100 100 100 100 100 100 100 100 100 100 100 100 97 100 97 88 91 6 51 6 100 68 91
100 100 100 100 100 100 100 90 97 100 100 47 60 96 93 18 42 79 37 100 100 100 100 100 100 29 62 54 86 100 100 100 99 92 87 100 100 100 17 7 60 100 54 100
100 100 100 100 100 100 100 100 94 82 100 74 100 96 87 24 11 100 6 79 67 26 75 92 98 71 90 97 99 58 25 83 96 98 100 100 100 91 10 14 94 47 67 100
100 100 100 100 100 100 95 85 93 100 100 49 25 92 100 40 6 42 7 12 28 16 73 100 100 29 98 91 14 14 5 73 100 100 100 100 100 58 14 55 21 5 78 100
100 100 100 100 100 100 78 98 91 82 100 98 96 8 12 99 44 55 90 11 5 20 5 41 19 8 7 47 5 9 47 8 5 100 100 100 100 100 100 98 99 80 100 100
100 100 100 100 100 20 5 4 24 100 100 100 79 100 86 87 65 87 100 100 100 16 5 55 5 5 5 6 10 5 34 29 5 100 100 100 100 100 100 100 100 100 100 100
96 77 34 5 45 70 13 3 55 60 100 100 97 100 100 98 100 100 100 100 100 95 42 63 13 40 10 4 48 98 100 93 78 100 100 100 100 100 100 100 100 100 100 100
5 5 43 91 97 100 100 100 100 100 100 100 100 100 100 95 100 100 100 100 100 100 100 100 61 99 29 29 99 100 100 49 48 100 100 100 100 100 100 75 81 100 100 100
50 96 100 100 100 100 100 100 100 100 100 99 100 99 100 99 100 100 68 100 100 100 96 100 100 20 11 61 85 100 100 69 94 100 100 100 100 92 100 100 100 70 92 94
100 100 100 91 76 98 99 100 99 100 93 80 62 86 70 72 78 90 71 99 100 100 92 100 100 89 5 8 8 23 12 5 10 47 58 23 100 100 100 49 92 98 90 100
100 88 71 97 100 100 100 92 95 94 14 93 100 98 35 99 32 10 100 100 100 100 100 100 100 90 98 52 48 26 45 69 72 80 100 100 100 96 100 100 100 98 100 100
93 100 100 100 100 100 100 100 100 98 100 100 100 100 98 75 28 90 100 100 100 100 100 100 100 100 100 100 100 99 100 100 100 100 100 100 100 100 100 100 100 100 100 100
100 100 100 100 100 100 100 100 97 100 100 100 100 100 100 100 100 100 99 97 100 100 100 100 100 100 100 100 100 100 100 100 100 100 100 100 100 100 100 100 100 100 100 100
100 100 100 100 100 100 100 100 100 100 100 100 100 100 100 100 100 100 100 100 100 100 100 100 100 100 100 100 100 100 100 100 100 100 100 100 100 100 100 100 100 100 100 100
100 100 100 100 100 100 100 100 100 100 100 100 100 100 100 100 98 98 100 100 100 100 100 100 100 100 100 100 100 100 100 100 100 100 100 100 100 100 100 100 100 100 100 100
100 100 100 100 100 100 100 100 100 100 100 100 100 100 100 100 100 100 100 100 100 100 100 100 100 100 100 100 100 100 100 100 100 100 100 100 100 100 100 100 100 100 100 100

GFSNW_prec_cloud_060.txt.gz
Cloud_Cover
100 100 100 100 100 100 61 63 100 46 80 91 100 100 5 2 7 99 100 100 100 100 100 100 100 100 100 100 100 100 28 5 49 42 4 1 88 98 44 27 50 5 30 100
100 100 100 100 100 100 100 100 100 97 98 89 100 100 62 5 80 100 100 100 100 100 100 100 100 100 100 100 100 100 94 5 5 69 4 5 5 5 5 96 11 5 20 100
100 100 100 100 100 100 100 100 100 100 100 3 4 85 52 66 95 100 100 100 100 100 100 100 100 100 100 100 100 56 5 24 97 86 5 5 5 3 4 12 6 5 5 49
55 100 100 100 100 100 100 100 96 38 100 99 5 17 19 94 74 100 100 100 100 100 100 100 100 100 100 100 62 40 5 72 100 80 100 15 6 4 0 5 7 10 8 5
80 100 100 100 100 100 100 100 78 75 8 5 6 4 92 84 91 100 100 100 100 100 100 100 100 100 100 100 100 57 12 99 100 100 100 25 78 5 0 0 5 5 6 11
76 100 100 100 100 100 100 100 99 65 3 58 89 23 5 66 100 100 100 100 100 100 100 100 100 100 100 100 100 99 100 100 100 100 48 6 99 5 3 0 4 5 5 5
99 72 100 100 100 100 99 100 100 100 94 100 57 51 5 5 100 100 100 100 100 100 100 100 100 100 100 100 100 82 94 100 100 61 18 73 100 33 5 0 4 0 5 5
97 69 100 100 100 100 100 100 94 100 68 37 80 51 76 6 98 100 100 100 100 100 100 100 100 100 100 100 99 100 100 100 80 85 91 96 100 95 4 5 5 0 4 1
100 100 100 100 100 100 100 100 100 100 67 34 91 32 96 65 49 77 100 100 100 100 100 100 100 100 100 100 98 100 100 100 100 21 100 100 100 99 5 5 100 5 0 5
88 85 85 100 100 100 100 100 100 100 85 100 84 77 52 69 95 51 100 100 100 100 100 100 100 100 100 100 100 100 100 100 100 100 100 100 100 100 23 16 100 5 5 5
100 100 100 100 100 100 100 100 100 99 91 66 3 88 100 7 100 23 100 100 100 100 98 100 100 100 100 100 100 100 100 100 100 100 100 100 100 99 16 82 10 8 5 5
100 100 100 100 100 100 100 100 100 100 100 69 50 83 99 93 5 32 100 100 100 100 97 100 95 91 100 100 100 100 100 100 100 100 100 100 100 100 93 6 17 63 29 95
100 100 100 100 100 100 100 100 100 100 71 11 7 92 64 54 37 94 100 100 100 100 74 100 100 79 100 100 100 100 100 100 100 99 100 100 100 100 52 42 34 90 95 80
100 100 100 100 100 100 100 100 100 100 7 9 29 100 100 97 74 98 100 100 100 100 100 88 77 62 49 96 100 100 100 100 94 76 100 100 100 98 84 30 69 80 58 22
100 100 100 100 100 100 100 100 100 78 25 47 38 72 100 100 70 97 100 94 100 51 100 97 74 30 92 91 100 100 100 100 100 100 100 100 100 99 87 70 75 98 93 88
100 100 100 100 100 100 100 100 100 100 59 97 25 32 96 100 100 24 96 31 6 32 62 99 100 90 100 100 100 100 100 100 100 100 100 96 80 100 100 100 98 96 100 100
100 100 100 100 100 100 100 100 100 100 85 43 98 100 5 94 100 100 80 16 5 8 90 68 89 100 21 83 100 100 100 100 100 100 99 79 58 34 21 30 85 100 100 100
100 100 100 100 100 100 100 100 100 96 41 63 98 100 100 78 46 95 81 93 89 49 5 12 17 28 49 88 100 100 100 100 100 100 56 72 43 5 5 16 39 98 100 97
100 100 100 100 100 100 100 62 7 56 26 32 100 100 100 89 69 86 92 55 100 90 100 46 5 59 81 100 100 100 100 100 98 34 56 58 14 5 5 5 67 78 96 94
100 100 100 100 41 68 9 49 97 64 94 81 100 73 100 100 100 100 99 85 98 100 76 100 100 91 100 100 100 100 100 100 67 38 7 5 5 7 12 5 65 100 100 95
72 88 84 96 97 95 100 100 100 98 94 100 100 100 100 100 100 100 100 100 100 100 93 100 100 100 98 91 79 83 97 100 64 30 31 78 81 47 26 82 87 89 90 100
98 94 90 90 100 100 98 100 100 68 21 100 100 79 97 98 100 100 100 100 100 100 100 100 100 100 100 100 100 78 62 70 32 30 56 69 56 88 100 100 100 100 98 100
99 87 100 100 100 99 100 98 94 97 86 97 100 100 100 96 56 98 100 100 100 100 100 100 100 100 100 100 100 100 100 93 100 100 100 100 99 100 100 100 100 100 100 100
100 100 100 100 100 100 100 100 89 100 100 100 100 100 100 100 100 100 100 100 100 100 100 100 100 100 100 100 100 100 100 100 100 100 100 100 100 100 100 100 100 100 100 100
100 100 100 100 100 100 100 100 100 100 100 91 100 100 100 100 100 100 98 97 100 100 100 100 100 100 100 100 100 100 100 100 100 100 100 100 100 100 100 100 100 100 100 100
100 100 100 100 100 100 100 100 100 100 100 100 100 100 100 100 98 95 99 100 100 100 100 100 100 100 100 100 100 100 100 100 100 100 100 100 100 100 100 100 100 100 100 100
100 100 100 100 100 100 100 100 100 100 100 100 100 100 100 100 100 100 100 100 100 100 100 100 100 100 100 100 100 100 100 100 100 100 100 100 100 100 100 100 100 100 100 100

GFSNW_prec_cloud_063.txt.gz
Cloud_Cover
100 100 100 100 100 100 100 100 100 62 80 100 83 23 6 7 0 5 52 20 2 5 100 100 100 100 100 100 100 92 97 100 100 100 16 18 100 62 98 100 82 31 38 6
100 100 100 100 100 100 100 100 100 97 77 100 55 1 1 6 96 40 100 66 4 5 98 100 100 100 100 100 79 22 46 99 100 100 95 27 58 98 100 88 67 93 47 12
100 97 100 100 100 100 100 100 100 100 100 37 5 3 3 5 9 89 100 98 43 5 96 100 100 100 100 100 100 100 36 100 100 100 100 16 100 96 57 92 83 50 11 77
100 100 100 100 100 100 100 100 86 100 100 92 13 54 20 1 3 22 100 100 100 5 97 100 100 100 100 100 100 100 30 68 100 100 95 99 100 100 100 62 79 86 6 95
100 100 100 100 100 100 100 100 63 50 6 99 94 80 51 63 0 11 100 100 100 100 96 100 100 100 100 100 100 100 100 100 100 100 79 87 100 100 100 25 31 5 5 5
100 100 100 100 100 100 100 98 30 100 95 86 91 28 5 53 6 5 84 100 100 100 100 100 100 100 100 100 100 100 100 100 100 100 92 59 98 100 64 8 5 5 5 5
100 87 5 17 100 100 100 31 85 98 100 100 22 55 7 8 100 5 70 100 100 100 100 100 100 100 100 100 100 100 100 100 84 100 61 59 100 100 16 95 5 5 5 5
100 100 88 86 53 100 100 96 99 100 80 100 100 100 100 99 46 100 97 100 100 100 100 100 100 100 100 100 100 100 100 100 94 100 93 100 100 100 100 100 48 5 6 12
100 100 100 100 96 100 100 100 100 100 100 100 100 100 100 93 89 100 100 99 28 100 100 100 100 100 100 100 100 100 100 100 100 99 50 99 100 100 81 5 98 4 24 27
100 100 100 85 100 100 100 100 100 100 100 100 100 85 17 51 98 15 100 70 84 88 100 100 100 100 100 100 100 100 82 86 100 100 69 100 100 100 98 58 100 53 11 34
100 100 100 100 100 100 100 100 100 100 100 100 100 17 78 71 100 37 91 100 100 100 100 100 100 100 100 100 100 100 100 100 82 100 96 100 100 100 100 100 99 47 4 5
100 100 100 100 100 100 100 100 100 100 100 100 100 100 96 35 83 99 98 100 50 100 100 100 100 94 100 100 100 100 100 81 100 100 100 100 100 100 100 100 100 20 47 9
100 100 100 100 100 100 100 100 100 100 100 100 99 44 2 62 35 100 44 90 71 100 100 99 100 92 100 100 100 100 100 100 100 100 100 100 100 100 100 100 100 12 91 40
100 100 100 100 100 100 100 100 100 100 100 100 100 44 5 44 9 49 26 42 99 100 76 6 26 99 5 5 82 53 100 100 100 100 100 100 100 100 100 100 100 98 59 8
100 100 100 100 100 100 100 100 100 100 100 100 100 37 86 71 25 86 64 6 84 85 35 60 18 15 5 5 11 99 100 100 100 100 100 100 100 100 100 93 100 100 100 65
100 100 100 100 100 100 100 100 100 100 100 100 81 23 73 42 50 50 20 98 6 29 5 5 5 30 6 44 21 100 100 100 100 100 100 100 100 100 100 100 100 100 71 21
100 100 100 100 100 100 100 100 100 100 100 92 92 66 38 100 100 46 28 49 6 54 43 17 33 9 85 5 89 100 100 100 100 100 100 100 100 100 100 100 100 100 46 80
100 100 100 100 100 100 100 100 100 98 100 100 100 51 91 100 98 100 100 15 34 66 30 7 37 18 28 55 100 100 100 100 100 100 100 100 100 100 100 100 95 6 22 68
100 100 100 100 100 91 100 71 65 100 98 54 98 87 84 97 99 90 100 98 43 5 9 14 72 88 89 100 100 100 100 100 100 100 100 100 100 100 98 95 56 5 5 5
100 100 100 100 100 100 76 86 48 5 5 53 40 33 53 100 97 100 100 100 100 100 80 11 97 100 100 100 100 100 100 100 100 100 100 100 100 100 100 100 80 6 5 5
98 97 100 85 100 100 100 98 48 96 94 100 5 21 91 99 100 100 100 99 77 100 100 60 100 100 96 92 100 100 100 100 100 100 100 100 100 100 99 61 45 54 82 98
89 99 100 90 78 100 100 84 74 95 92 48 81 100 100 100 100 96 95 100 100 100 100 100 100 100 100 100 100 100 98 100 100 100 100 100 100 71 83 100 100 100 100 100
60 20 96 100 100 100 96 99 93 77 18 88 100 100 100 100 100 100 100 100 100 100 100 100 100 100 100 100 100 100 100 100 100 100 100 96 86 78 96 100 100 100 100 100
100 100 96 100 98 100 100 88 100 100 100 100 100 100 100 100 100 100 100 100 100 100 100 100 100 100 100 100 100 100 100 100 100 100 100 100 100 100 100 100 100 100 100 100
83 96 100 100 100 99 90 100 100 100 100 100 100 100 100 100 100 100 100 100 100 100 100 100 100 100 100 100 100 100 100 100 100 100 100 100 100 100 100 100 100 100 100 100
100 100 98 100 100 100 100 100 100 100 100 100 100 100 100 100 100 100 100 100 100 100 100 100 100 100 100 100 100 100 100 100 100 100 100 100 100 99 100 100 100 100 100 100
100 100 100 100 100 100 100 100 100 100 100 98 80 98 100 100 100 100 100 100 100 100 100 100 100 100 100 100 100 100 100 100 100 100 100 100 100 100 99 100 100 100 100 100

GFSNW_prec_cloud_066.txt.gz
Cloud_Cover
94 99 100 100 100 100 100 100 100 99 100 99 100 100 7 5 0 0 0 4 61 98 100 100 8 18 100 100 100 100 100 100 100 100 100 100 100 25 6 50 45 3 13 86
100 100 100 100 100 100 100 100 100 100 100 100 100 58 5 62 5 30 0 7 80 97 100 100 90 5 100 100 100 100 100 100 100 100 100 100 100 99 39 5 5 24 40 15
91 99 100 100 100 100 100 100 100 100 100 17 66 19 5 6 0 5 0 0 98 100 100 87 100 72 100 100 100 100 100 100 97 60 100 100 100 96 93 61 95 98 100 4
100 100 100 100 100 100 100 100 92 47 100 89 22 90 34 10 31 10 42 6 5 99 100 98 65 100 100 100 100 100 100 100 100 27 100 96 100 100 36 100 100 100 100 19
93 100 100 100 100 100 100 100 86 35 52 92 100 49 8 75 5 5 0 85 0 93 100 85 100 100 11 100 100 100 100 100 97 92 100 100 100 100 43 99 100 100 99 62
78 95 100 100 100 100 100 100 100 100 17 100 100 34 5 7 90 6 2 1 5 71 92 100 100 16 39 100 100 100 100 100 100 92 100 100 100 100 93 100 100 100 80 14
100 94 100 100 100 100 100 93 87 100 88 68 24 20 82 38 36 13 14 11 24 1 100 96 100 100 99 100 100 100 100 100 100 100 100 45 98 100 17 8 97 31 29 88
85 100 65 100 100 100 100 100 100 100 100 79 96 100 76 30 99 93 60 1 94 20 25 100 100 100 23 100 100 100 100 100 100 100 100 91 100 100 98 53 67 22 88 100
91 100 52 96 100 100 100 100 100 100 100 86 91 99 88 80 98 32 2 13 100 94 98 100 100 6 10 100 100 100 100 100 100 100 100 100 100 100 100 100 86 100 100 98
100 100 96 21 100 100 100 100 100 100 99 100 100 98 12 92 100 50 3 89 100 24 100 100 100 88 85 99 100 100 100 100 100 100 100 100 100 100 100 28 65 100 57 60
88 90 98 100 100 100 100 100 100 100 100 86 100 91 100 100 100 71 0 53 39 100 100 84 98 32 15 100 100 100 100 100 100 100 100 90 100 100 96 99 100 26 23 48
37 100 100 100 100 100 100 100 100 100 98 100 100 100 100 100 100 82 0 14 89 95 100 14 16 9 100 100 100 100 100 100 100 100 100 100 100 100 100 100 100 98 99 100
100 100 100 100 100 100 100 100 100 100 100 100 100 100 100 100 100 28 2 73 8 100 99 67 5 2 100 100 100 100 100 100 100 100 100 100 100 100 100 100 100 68 82 71
100 100 100 100 100 90 100 100 100 100 100 100 100 100 100 77 75 5 4 22 61 85 78 92 54 3 87 100 100 100 100 100 100 100 100 100 100 100 100 100 100 100 100 100
100 100 100 100 100 100 100 100 100 100 100 100 100 100 71 100 100 5 5 19 92 100 83 53 7 5 10 100 100 100 74 100 100 99 100 100 100 100 99 100 100 100 100 100
100 100 100 100 100 100 100 100 100 100 100 100 100 47 100 100 60 5 0 5 30 100 80 31 50 7 0 46 100 100 100 100 100 100 100 100 100 100 100 100 100 100 100 100
100 100 100 100 100 100 100 100 100 100 100 100 100 100 100 100 86 4 20 11 90 32 94 76 5 1 0 2 100 100 100 100 100 100 100 100 100 100 100 100 100 100 68 99
100 100 100 100 100 100 100 100 94 100 100 100 100 100 100 100 36 5 16 51 100 100 100 89 0 0 49 6 100 100 100 100 78 20 88 100 100 100 73 100 100 100 52 88
100 100 100 100 100 100 100 100 100 100 100 100 100 100 100 82 8 6 18 100 100 21 12 5 34 5 53 42 100 100 100 96 5 28 10 97 100 100 100 100 100 100 100 100
100 100 100 100 100 100 100 100 100 100 100 100 100 100 68 72 97 86 100 100 77 14 1 64 100 64 50 22 100 94 99 98 30 65 100 100 100 100 100 100 100 100 100 100
100 100 100 100 100 100 100 100 100 100 100 100 86 36 60 89 100 100 100 100 100 84 18 42 94 13 100 100 100 78 82 92 100 100 100 100 100 100 100 100 100 100 100 100
100 100 100 100 100 100 100 100 100 100 100 86 68 21 89 94 100 100 100 100 100 100 74 89 96 100 100 100 100 100 100 100 100 100 100 100 100 100 100 100 100 100 100 100
88 88 92 92 95 100 100 100 100 100 98 63 97 100 99 88 100 100 100 100 100 100 100 100 100 100 100 100 100 100 100 100 100 100 100 100 100 100 100 100 100 100 100 100
79 97 81 100 78 100 100 100 100 100 100 100 100 100 100 100 100 100 100 100 100 100 100 100 100 100 100 100 100 100 100 100 100 100 100 100 100 100 100 100 100 99 97 100
64 76 98 97 100 99 97 99 100 100 100 100 100 100 100 100 100 100 100 100 100 100 100 100 100 100 100 98 100 100 100 100 100 100 100 100 100 100 100 100 100 100 100 100
100 100 100 100 100 92 99 96 100 100 100 100 100 100 100 100 100 100 100 100 100 100 100 100 100 100 100 100 100 100 100 100 100 100 100 100 100 100 100 100 100 100 100 100
100 100 100 100 100 100 100 100 90 100 100 100 100 100 100 100 100 100 100 100 100 100 100 100 100 100 100 100 100 100 100 100 100 100 100 100 100 100 100 100 100 100 100 100

GFSNW_prec_cloud_069.txt.gz
Cloud_Cover
100 100 100 100 100 100 100 100 100 69 100 100 98 100 100 87 1 0 3 0 2 5 100 100 100 100 100 100 100 33 86 100 100 100 100 100 100 100 100 100 96 87 69 66
100 100 100 100 100 100 100 100 100 100 100 100 100 98 100 100 8 0 0 0 56 73 100 100 100 73 100 100 100 62 100 79 100 96 98 100 96 99 100 100 100 100 52 8
100 100 100 100 100 100 100 100 100 100 100 14 22 100 100 100 6 5 3 0 99 37 58 43 98 67 100 100 100 60 100 91 96 5 77 100 100 100 100 100 100 99 76 16
100 100 100 100 100 100 100 100 98 76 100 100 100 98 87 100 60 1 42 0 1 2 81 51 91 97 100 100 100 89 99 42 96 33 100 100 100 100 98 100 100 99 6 73
55 91 100 100 100 100 100 100 100 59 5 100 100 100 51 5 5 5 15 79 0 4 2 1 3 42 100 100 100 100 94 80 100 100 100 100 100 100 100 100 100 100 100 75
5 6 88 100 100 100 100 100 93 99 29 100 100 64 8 39 89 7 59 98 19 22 5 56 34 45 100 98 99 100 81 100 100 100 100 100 100 87 100 100 100 100 32 57
95 75 5 42 100 100 100 100 100 100 100 43 48 91 75 42 5 20 52 41 5 0 5 66 91 100 100 100 98 32 30 100 100 100 100 63 58 100 100 100 100 100 100 89
98 100 100 68 91 98 100 100 100 100 100 100 100 100 97 35 5 5 7 5 57 4 5 68 50 93 100 100 100 100 62 85 100 100 100 98 100 100 100 100 100 100 100 88
91 100 100 94 41 24 100 100 100 100 100 20 86 100 100 100 100 36 3 10 88 81 10 78 98 100 100 100 100 89 100 100 100 100 100 100 99 100 100 100 100 100 100 100
46 37 88 80 91 32 100 100 100 100 100 100 100 67 99 100 100 12 4 13 100 100 4 5 79 52 100 100 100 96 99 98 100 100 100 100 100 100 100 100 100 100 100 100
100 91 78 96 83 100 100 100 100 100 100 100 37 80 100 100 100 100 74 100 18 22 20 6 15 74 30 82 65 32 75 100 100 100 87 100 100 100 100 100 100 100 100 100
100 100 100 100 100 100 100 100 100 100 100 100 100 100 100 100 100 88 87 1 3 42 5 100 50 5 5 44 83 5 9 99 100 100 100 100 100 100 100 100 100 100 100 99
100 100 100 100 100 100 100 100 100 100 100 100 100 100 100 92 70 67 89 4 5 13 2 17 100 97 61 32 5 29 13 100 100 100 100 100 100 100 100 100 96 97 100 93
100 100 100 100 100 100 100 100 100 100 100 100 100 100 100 69 11 15 58 96 100 76 96 100 100 90 94 15 4 23 100 100 100 100 100 100 100 100 100 100 100 100 74 34
100 100 100 100 100 100 100 100 100 100 100 100 100 99 82 99 100 100 48 100 100 76 14 79 100 88 37 1 2 30 100 100 100 100 100 100 100 100 100 100 100 100 93 84
100 100 100 100 100 100 100 100 100 100 100 100 100 91 100 99 100 100 100 100 100 95 5 85 99 99 17 9 4 17 100 100 100 100 100 100 100 100 100 100 100 100 100 100
100 100 100 100 100 100 100 100 100 100 100 98 100 85 38 100 100 100 100 98 40 59 100 100 7 100 78 74 8 100 100 100 100 100 100 100 100 100 100 100 100 100 100 85
100 100 100 100 100 100 100 100 100 100 100 100 99 100 100 100 100 100 99 5 5 5 57 95 100 100 100 99 91 98 94 100 100 100 100 100 100 100 100 100 100 100 100 100
100 100 100 100 100 100 100 100 96 100 96 100 100 100 100 100 100 100 95 46 68 22 87 100 100 100 100 100 99 72 100 100 100 100 100 100 100 100 100 100 100 100 100 100
100 100 100 100 100 100 100 100 90 85 100 100 100 100 100 98 100 100 37 66 45 8 78 100 100 100 100 100 100 100 77 100 100 100 100 100 100 100 100 100 100 100 100 100
85 98 100 100 100 99 100 100 100 100 100 100 100 100 100 100 100 100 92 97 99 100 100 100 100 100 100 100 100 100 100 71 70 100 100 100 100 92 100 100 100 100 100 100
100 100 100 100 100 100 100 100 100 100 100 100 100 100 100 100 100 92 100 100 81 100 100 100 100 100 100 100 100 99 100 100 100 84 82 90 100 100 100 100 100 100 100 100
90 92 100 100 100 100 100 100 100 100 100 100 100 100 100 59 84 97 96 100 100 100 100 100 100 100 100 100 100 100 100 100 100 100 100 100 100 100 100 100 100 100 100 100
100 99 84 60 96 88 93 100 98 100 100 100 100 90 72 100 100 100 100 100 100 100 100 100 100 100 100 97 100 98 91 100 100 100 100 100 100 100 100 100 100 100 100 100
100 100 100 100 100 100 100 100 100 100 100 100 100 98 99 100 100 100 100 100 100 100 100 100 100 100 100 94 95 100 100 100 100 100 100 100 100 100 100 100 100 100 100 100
4 10 95 100 94 100 96 100 99 100 100 100 100 100 100 100 100 100 100 100 100 100 100 100 100 100 100 100 100 100 100 100 100 100 100 100 100 100 100 100 100 100 100 100
75 99 95 80 69 73 92 100 100 100 100 84 100 100 100 100 100 100 100 100 100 100 100 100 100 100 100 100 100 100 100 100 100 100 100 100 100 100 100 100 100 100 100 100

GFSNW_prec_cloud_072.txt.gz
Cloud_Cover
100 100 100 100 100 100 100 100 100 100 100 100 100 100 100 100 91 24 5 0 0 99 100 100 100 100 89 5 4 0 0 23 6 51 100 100 100 100 98 99 100 100 100 100
100 100 100 100 100 100 100 100 100 100 99 99 100 100 76 73 100 30 5 3 0 94 100 100 100 100 100 100 76 8 40 9 68 88 56 97 100 97 100 98 80 100 100 100
100 100 100 100 100 100 100 100 100 100 100 46 100 100 100 95 88 92 2 9 14 0 100 90 88 100 100 100 73 100 85 50 100 58 100 100 100 100 100 100 100 100 100 92
100 100 100 100 100 100 100 100 100 51 100 100 100 96 100 100 97 81 6 5 33 43 0 2 0 100 100 100 100 57 53 98 100 100 100 100 100 100 100 100 100 70 100 82
100 100 100 100 100 100 100 100 100 100 99 100 100 99 95 100 99 61 91 6 0 4 1 35 7 5 99 100 100 100 66 100 100 100 100 100 92 100 100 100 100 100 100 100
100 100 100 100 100 100 100 100 99 100 100 100 100 72 96 100 97 14 7 54 1 0 18 100 100 41 100 88 35 100 40 100 100 100 100 100 96 100 96 72 99 100 100 100
100 99 21 68 100 100 100 100 100 100 100 43 78 78 100 97 95 10 87 49 6 82 40 63 76 97 77 6 100 100 66 100 100 100 100 100 92 100 100 100 100 100 100 100
100 100 100 26 18 100 100 100 100 100 100 38 92 100 39 48 29 86 100 100 55 56 43 53 100 7 16 77 100 100 100 100 100 100 100 100 100 100 100 100 100 100 100 100
87 100 100 100 6 5 83 100 100 100 100 85 85 77 92 100 100 100 95 100 96 5 5 4 29 70 21 0 39 100 100 100 100 100 100 100 100 100 100 100 76 100 100 100
100 87 100 98 100 100 75 100 100 100 100 28 90 22 31 52 63 56 74 100 100 14 7 6 65 27 64 5 37 100 94 100 98 99 100 100 100 100 100 100 58 100 100 100
100 88 100 100 100 100 100 100 100 100 100 84 96 78 100 98 100 100 100 100 76 5 5 16 12 4 0 2 5 35 91 100 70 68 57 100 100 100 100 99 63 100 100 100
100 100 100 100 100 100 100 100 100 100 100 100 100 100 100 100 100 100 100 97 100 28 2 39 4 8 1 0 3 95 97 49 100 98 100 100 100 100 100 100 88 100 100 100
100 100 100 100 100 100 100 100 100 100 100 100 100 94 99 100 100 100 100 45 98 47 5 5 8 12 31 5 2 100 100 100 100 74 100 100 100 100 100 100 100 100 100 100
100 100 100 100 100 100 100 100 100 100 100 100 95 89 100 100 100 100 96 91 100 100 100 92 14 9 34 21 26 22 100 100 100 66 100 100 100 100 100 100 100 100 98 100
100 100 100 100 100 100 100 77 100 100 100 100 100 100 100 60 31 29 90 100 80 100 100 89 36 52 83 100 46 65 81 88 60 94 100 100 96 100 100 100 100 100 100 100
100 100 100 100 100 100 100 100 100 100 100 100 100 100 100 100 100 100 100 100 100 100 100 48 5 100 90 96 9 20 85 72 5 21 93 94 71 100 100 100 100 100 100 100
100 100 100 100 100 100 100 100 100 100 100 100 100 100 73 91 100 97 100 100 100 99 95 88 100 30 5 100 100 100 77 10 0 23 60 96 86 100 100 100 100 100 100 100
100 100 100 100 100 100 100 100 100 100 100 100 98 100 100 100 100 100 100 100 100 100 100 100 93 100 81 100 100 100 100 42 80 12 100 100 100 100 100 100 100 100 100 100
100 100 100 100 100 100 100 100 100 100 82 78 60 63 100 97 100 100 100 100 100 100 100 80 28 100 100 100 100 100 100 91 34 65 100 100 100 100 100 100 100 100 100 100
100 100 100 100 100 100 100 100 100 100 100 99 100 100 100 100 100 100 100 100 100 73 9 8 90 100 100 100 100 100 100 96 59 7 100 100 100 100 100 100 100 100 100 100
100 100 99 100 100 99 100 89 100 100 100 100 100 100 100 100 100 100 100 100 99 41 67 60 100 100 100 100 100 100 100 100 93 84 66 78 99 100 100 100 100 100 100 100
97 94 59 82 89 96 100 100 100 100 100 100 100 100 100 100 100 100 100 100 100 100 66 88 100 100 100 100 100 100 100 100 100 98 100 100 100 100 100 100 100 100 100 100
100 100 100 100 100 100 100 100 100 100 100 100 100 100 100 100 100 100 100 100 94 100 100 99 100 100 97 100 100 100 100 100 100 100 100 100 100 100 100 100 100 100 100 100
100 100 100 100 100 100 100 100 100 100 100 100 100 100 100 100 96 100 100 100 100 100 100 100 100 100 100 100 100 100 100 100 100 100 100 100 100 100 100 100 100 100 100 100
98 100 99 100 100 100 100 100 100 100 100 100 100 97 100 90 99 94 100 100 100 100 100 100 100 100 100 100 100 100 100 100 100 100 100 100 100 100 100 100 100 100 100 100
5 38 98 92 92 100 100 100 100 100 100 100 100 100 100 100 99 98 100 100 100 100 100 100 99 100 100 100 100 100 100 100 100 100 100 100 100 100 100 100 100 100 100 100
5 88 81 91 98 99 100 100 100 100 100 100 98 100 100 100 100 100 100 93 100 100 100 100 100 100 100 100 100 100 100 100 100 100 100 100 100 100 100 100 100 100 100 100

GFSNW_prec_cloud_078.txt.gz
Cloud_Cover
5 5 99 89 53 30 99 100 100 91 100 100 100 100 100 6 69 15 5 6 5 4 1 0 0 5 54 76 34 46 100 100 100 100 100 94 41 57 97 66 5 12 66 100
87 85 100 100 84 91 100 100 100 100 100 100 100 100 100 90 5 11 24 5 5 5 1 0 3 5 36 83 93 97 86 16 59 99 95 11 5 5 97 98 96 32 43 100
100 100 100 100 100 100 100 100 100 100 100 60 100 100 100 99 85 99 66 98 99 78 5 4 3 0 0 100 100 100 100 100 11 11 99 100 96 99 100 100 80 54 77 100
100 100 100 100 100 100 100 100 100 50 98 100 100 88 75 100 96 100 100 99 82 84 5 5 5 0 0 11 100 100 100 100 11 3 0 0 1 5 100 32 6 4 59 98
100 100 100 100 100 100 100 100 100 100 82 100 100 99 100 96 100 100 100 86 100 97 14 5 2 0 4 3 54 94 100 88 62 5 1 0 0 9 16 5 5 6 12 43
100 100 100 100 100 100 100 100 100 96 50 50 100 96 91 100 100 100 100 100 100 100 91 25 5 74 2 2 5 100 100 100 100 52 5 0 6 0 0 2 3 3 7 98
100 100 100 100 100 100 100 100 97 100 100 100 69 96 100 100 100 100 100 100 100 100 100 95 43 7 17 56 68 47 82 100 100 95 85 20 3 7 75 92 24 14 26 93
13 100 100 100 100 100 100 100 99 100 100 99 94 100 100 100 100 100 100 100 100 100 100 99 58 6 67 100 100 100 100 100 100 100 98 24 5 89 100 93 70 54 52 99
88 9 96 100 100 100 100 100 100 100 100 99 100 100 100 100 100 100 100 100 100 100 100 100 99 100 100 100 100 100 100 100 100 100 100 100 91 53 100 30 54 100 100 100
100 100 81 35 100 100 100 100 100 100 100 92 95 100 100 100 100 100 100 100 100 100 100 100 100 83 100 100 100 100 100 100 100 100 100 70 100 100 100 94 98 100 100 100
100 100 100 100 74 100 100 100 100 100 100 100 97 100 100 100 100 100 100 100 92 100 100 100 100 96 52 100 100 100 100 100 100 100 100 100 100 100 100 99 100 100 100 100
100 80 100 100 100 100 100 100 100 100 100 100 100 100 100 100 100 100 100 100 100 95 23 21 98 66 52 12 100 100 100 100 100 100 72 58 100 100 100 100 100 100 100 100
56 100 100 100 100 100 88 100 100 100 100 100 98 100 100 100 100 100 100 100 98 90 93 93 67 5 5 2 5 87 100 100 72 100 100 100 88 100 100 100 98 100 100 100
100 100 100 100 100 100 100 100 100 100 100 100 73 100 100 100 100 100 100 100 100 100 100 98 33 5 5 5 3 4 65 100 100 17 44 50 32 99 100 100 84 100 100 100
98 100 100 100 100 100 100 100 100 99 93 62 63 100 100 100 100 100 100 100 84 98 97 84 57 92 98 29 5 5 4 7 67 100 96 99 100 100 100 100 95 100 100 100
100 100 100 100 100 100 100 100 100 100 44 35 68 89 100 93 100 100 100 100 100 74 91 66 99 93 63 5 5 21 1 0 0 3 2 0 30 100 54 92 100 100 100 100
100 100 100 100 100 100 100 99 71 49 84 100 100 100 100 99 100 100 100 100 100 100 100 83 60 70 87 52 57 93 100 60 4 38 33 12 51 100 100 85 100 100 100 100
100 100 100 100 100 100 100 100 100 100 100 99 100 100 100 96 100 100 100 100 100 100 91 96 83 100 76 83 100 99 83 70 3 12 61 94 52 100 100 85 100 100 100 100
100 100 100 100 100 100 100 100 100 100 100 100 100 100 100 100 100 100 100 100 100 40 100 100 89 100 100 100 100 100 100 100 100 98 97 44 79 95 100 100 100 100 100 100
100 100 100 100 100 100 100 100 100 100 100 100 100 100 100 98 100 100 100 100 100 100 100 100 100 100 100 100 100 100 100 100 100 100 90 92 100 100 98 100 100 100 99 99
100 100 100 100 100 100 100 100 100 100 100 100 100 100 100 100 100 100 60 76 61 52 53 100 100 100 100 100 100 100 100 100 100 100 100 100 100 100 84 100 100 100 100 99
100 100 100 100 98 86 83 94 93 100 100 100 100 100 100 100 99 96 96 71 86 86 100 100 98 100 99 100 100 100 100 100 98 100 100 100 100 100 100 100 100 100 100 100
100 100 100 100 92 100 100 100 100 100 100 100 100 99 100 100 100 100 100 100 100 100 100 100 100 100 100 99 100 99 100 99 99 100 100 100 100 100 100 100 100 100 100 100
100 100 100 100 100 100 100 100 100 100 100 100 99 99 100 93 100 100 100 100 100 100 100 100 100 100 100 100 100 98 99 99 100 100 100 100 100 100 100 100 100 100 100 100
100 100 100 100 100 100 100 100 100 100 100 100 99 94 100 100 100 100 100 100 97 90 100 100 100 100 100 100 99 91 100 100 100 100 100 100 100 100 100 100 100 100 100 100
100 100 100 100 100 100 100 100 100 100 100 100 100 100 100 100 100 100 100 100 93 96 96 100 100 100 100 100 100 100 100 100 100 100 100 100 100 100 100 100 100 100 100 100
100 100 100 100 100 100 100 100 100 98 100 100 100 100 100 88 96 93 80 100 100 100 100 100 100 100 100 100 100 100 100 100 100 100 100 100 100 100 100 100 100 100 100 100

GFSNW_prec_cloud_081.txt.gz
Cloud_Cover
100 98 5 0 27 97 85 100 100 13 96 100 100 100 100 100 88 100 100 100 100 100 100 59 31 100 100 100 100 100 100 100 100 100 100 100 100 100 100 97 6 7 90 84
100 100 100 100 10 95 75 100 100 69 94 100 100 100 68 100 100 100 96 91 72 25 35 49 89 10 22 89 98 100 96 99 100 100 100 100 100 100 100 82 46 10 70 48
100 100 100 100 100 100 100 100 100 100 100 100 100 97 100 100 100 100 72 7 5 6 77 77 46 100 98 6 4 5 98 100 100 72 100 97 93 100 100 100 94 90 19 95
100 100 100 100 100 100 100 100 100 31 99 100 100 100 98 40 85 100 30 40 5 25 59 58 35 32 15 3 3 1 4 49 87 69 81 75 70 71 77 100 88 11 90 16
100 100 100 100 100 100 100 100 100 100 8 71 100 88 100 100 100 98 47 5 96 100 33 81 100 100 96 14 94 89 75 77 100 50 5 5 5 5 5 5 5 6 100 22
100 100 100 100 100 100 100 100 100 94 92 99 100 100 57 86 100 87 65 100 96 100 92 100 57 100 26 73 5 33 5 80 100 7 6 59 21 0 5 5 4 5 5 21
97 100 100 100 100 100 100 100 100 100 100 94 67 83 69 94 100 95 100 100 100 100 100 81 19 44 5 5 5 5 20 49 100 80 100 100 60 0 0 0 0 0 1 0
5 15 100 100 100 100 100 100 100 100 100 100 92 100 100 100 100 100 100 100 100 100 100 90 45 5 5 1 0 0 2 24 100 100 100 100 100 93 56 5 3 17 5 49
100 100 89 99 100 100 100 100 100 100 100 84 100 100 100 100 100 100 100 100 100 100 100 100 99 97 47 9 4 41 3 90 100 100 100 100 100 100 100 39 10 100 100 43
100 100 100 84 80 100 100 100 100 100 100 100 85 51 100 100 100 100 100 100 100 100 100 100 100 100 35 88 100 100 100 100 100 100 100 100 100 100 100 100 98 100 100 59
100 100 100 100 34 24 100 100 100 100 100 100 93 15 100 100 100 100 100 100 100 100 100 100 100 100 66 70 100 100 100 100 100 100 100 100 100 97 100 100 100 97 100 98
98 100 100 100 99 5 25 100 100 100 100 100 100 99 98 100 100 100 100 100 100 100 99 76 100 100 89 17 97 100 100 100 100 100 100 100 100 100 100 100 100 100 100 100
100 91 100 100 100 100 31 100 100 100 100 100 100 100 100 100 100 100 100 97 85 99 100 100 96 100 91 34 26 99 100 100 100 100 100 100 100 100 100 90 94 100 100 99
100 100 100 100 100 100 100 100 100 100 100 100 100 100 100 100 100 100 100 100 100 100 100 100 94 99 99 84 68 28 97 100 97 76 100 100 100 100 100 90 100 96 70 22
98 100 100 100 100 100 100 100 100 100 100 100 99 100 100 100 100 100 100 100 100 100 100 93 100 100 100 90 78 31 8 46 100 67 100 100 100 100 100 100 98 100 96 11
97 100 100 100 100 100 100 100 100 100 100 100 100 99 100 100 100 100 100 100 100 95 100 100 77 100 100 87 62 64 99 77 62 54 100 100 100 100 100 100 99 99 100 62
100 100 100 100 100 100 100 77 96 100 100 100 90 100 100 100 100 100 100 100 100 82 100 84 100 100 100 100 97 100 100 93 19 100 59 65 100 100 100 98 100 100 99 99
100 100 100 100 100 100 100 100 100 100 100 100 64 87 100 64 100 100 100 100 100 98 98 87 51 100 100 100 100 100 99 42 94 82 100 100 100 79 100 26 91 88 74 66
100 100 100 100 100 100 100 100 100 100 100 74 87 100 100 100 100 100 100 100 100 100 100 100 84 100 100 100 100 100 100 99 100 99 100 100 100 98 36 17 7 97 100 100
100 100 100 100 100 100 100 100 100 100 100 100 100 100 100 100 100 100 100 100 100 100 100 100 100 100 100 100 100 100 100 100 100 100 100 100 100 100 100 83 80 74 100 100
100 100 100 100 100 100 100 100 100 100 100 100 100 100 100 100 100 100 100 100 100 100 100 100 100 100 100 99 98 100 100 98 100 100 100 100 100 100 100 100 100 96 100 100
100 100 100 100 100 100 100 100 100 100 100 100 100 100 100 100 100 100 100 100 95 98 98 100 100 100 97 97 100 93 92 89 97 99 99 98 100 100 100 100 100 100 100 100
100 100 100 100 100 100 100 100 100 100 100 100 100 100 90 100 96 90 100 98 99 94 100 100 100 100 95 97 100 95 100 100 99 100 100 100 100 100 100 100 100 100 100 100
100 94 100 100 96 100 100 100 100 100 100 100 100 100 100 100 100 84 14 99 68 93 100 100 100 100 100 100 100 100 100 100 100 100 100 100 100 100 100 100 100 100 100 100
100 96 94 77 100 100 100 100 96 100 100 100 99 68 87 87 95 100 100 100 100 100 100 100 100 100 100 100 100 100 100 99 100 100 100 100 100 100 100 100 100 100 100 100
100 100 100 100 100 91 93 100 100 100 100 100 100 100 100 100 100 100 100 100 100 100 100 100 100 100 100 100 100 100 100 100 100 100 100 100 100 100 100 100 100 100 100 100
100 100 100 100 100 100 100 100 100 98 100 100 100 98 100 62 70 99 100 100 100 100 100 100 100 100 100 100 100 100 100 100 100 100 100 100 100 100 100 100 100 100 100 100

GFSNW_prec_cloud_084.txt.gz
Cloud_Cover
5 19 5 6 89 64 6 83 99 16 38 100 100 100 100 28 100 100 100 100 100 100 100 100 100 100 100 100 100 100 100 100 100 100 100 100 100 100 100 49 97 14 5 92
5 11 24 84 94 89 93 100 100 7 69 99 53 64 83 68 100 100 100 100 100 100 100 93 100 100 100 100 100 100 100 100 100 100 100 100 100 100 99 96 88 5 79 94
98 95 100 100 98 100 100 100 98 67 90 50 98 99 58 100 100 100 100 100 100 100 100 100 100 100 100 100 100 100 100 100 100 100 100 100 100 100 100 100 22 9 17 51
100 100 100 100 100 100 100 100 71 18 91 63 97 93 100 98 100 88 99 100 100 100 100 100 100 100 89 52 80 100 100 100 100 100 100 95 100 100 100 100 100 87 100 70
100 100 100 100 100 100 100 100 100 80 5 23 89 99 56 79 100 88 100 90 100 100 100 100 100 100 93 100 96 72 99 100 64 7 100 35 5 38 99 100 100 62 100 99
100 100 100 100 100 100 100 100 100 100 41 6 97 52 54 100 100 95 99 95 96 92 90 93 74 95 100 88 86 100 99 80 79 5 57 93 8 5 5 5 14 57 14 100
100 100 100 100 100 100 100 100 100 100 51 99 9 77 95 90 71 89 90 99 94 89 95 74 78 69 68 75 60 84 95 84 86 15 14 10 1 38 70 7 5 5 5 16
100 100 100 100 100 100 100 100 99 100 96 45 100 86 100 95 89 100 100 100 100 100 100 94 92 85 77 4 1 13 21 80 100 26 77 13 35 100 100 100 16 22 5 89
5 7 78 7 14 94 100 100 100 100 100 41 72 69 90 76 86 100 100 100 100 100 100 100 97 100 97 64 90 5 36 90 98 7 90 67 100 100 100 100 50 49 10 35
90 87 100 99 73 91 90 100 100 100 100 65 88 61 84 100 100 100 100 100 100 100 100 100 99 86 99 91 100 100 82 100 51 44 100 94 100 100 100 100 100 100 36 99
100 100 100 81 80 86 89 100 100 100 100 87 100 81 99 100 100 100 100 100 100 100 100 100 98 100 100 100 100 99 100 86 37 95 100 100 100 100 100 100 100 100 100 100
94 99 100 100 99 98 93 100 97 100 100 100 100 97 92 100 100 100 100 100 100 100 100 96 100 100 100 100 100 6 72 100 100 92 100 100 100 100 100 100 100 97 100 96
100 100 100 100 100 100 84 99 100 100 100 100 100 100 100 100 100 100 100 100 100 100 100 100 100 100 100 100 100 75 61 100 86 100 100 100 100 100 100 100 94 81 100 100
100 100 100 100 100 100 100 100 100 98 100 100 100 100 100 100 100 100 100 100 100 100 100 100 100 100 100 100 100 97 60 98 88 100 100 100 100 100 100 100 100 100 100 100
98 93 100 100 100 100 100 100 92 100 100 100 100 100 100 100 100 100 100 100 100 100 100 100 100 100 100 100 95 36 65 24 96 68 100 100 100 100 100 100 100 100 100 100
96 66 100 100 100 100 100 100 100 100 100 100 100 100 100 100 100 100 100 100 100 100 100 100 100 100 100 100 100 100 100 100 100 100 100 10 65 100 100 100 100 100 100 27
99 92 100 100 100 100 100 100 100 100 98 100 72 100 100 100 100 100 100 100 100 100 100 100 100 100 100 100 100 100 100 100 100 100 55 90 100 100 100 100 100 99 100 100
100 100 100 100 100 100 100 100 100 100 100 75 79 58 100 100 96 100 100 100 100 100 100 100 100 100 95 100 100 100 100 100 100 100 100 100 100 100 100 100 58 63 90 83
100 100 100 100 100 100 100 100 100 100 100 73 100 93 70 100 100 100 100 100 100 100 100 100 100 100 100 100 100 99 100 100 98 98 100 100 100 100 100 100 99 74 83 87
100 100 100 100 100 100 100 100 100 100 100 70 80 85 100 100 100 100 100 100 100 100 100 100 99 100 100 100 100 100 97 99 100 100 99 93 80 98 100 100 100 100 100 100
96 100 100 100 100 100 100 100 100 100 100 100 98 100 100 100 86 100 100 100 100 100 100 100 100 100 100 100 100 100 92 97 100 100 100 100 99 98 100 100 100 100 100 100
100 100 100 100 100 100 100 100 100 98 100 100 100 100 100 100 100 100 100 100 100 100 100 100 100 100 100 99 97 100 99 100 100 100 100 100 100 100 100 100 100 100 100 100
100 100 100 100 100 100 100 100 100 100 100 100 100 100 100 100 100 100 100 100 100 100 100 100 100 100 99 99 100 99 99 99 100 100 100 100 100 100 100 100 100 100 100 100
100 100 100 100 100 100 100 100 100 100 100 100 100 100 100 100 100 100 99 99 86 100 100 100 100 100 100 100 100 100 100 100 100 100 100 100 100 100 100 100 100 100 100 100
93 89 100 100 100 100 100 100 100 100 100 100 100 99 100 100 100 80 74 79 100 100 100 100 100 100 100 100 100 100 100 100 100 100 100 100 100 100 100 100 100 100 100 100
100 94 100 100 100 100 100 100 100 100 100 95 98 92 100 99 72 62 100 98 100 100 100 100 100 100 100 100 100 100 100 100 100 100 100 100 100 100 100 100 100 100 100 100
80 100 100 100 100 100 100 100 100 100 100 100 100 100 100 100 100 100 100 100 100 100 100 100 100 100 100 100 100 100 100 100 100 100 100 100 100 100 100 100 100 100 100 100

GFSNW_prec_cloud_090.txt.gz
Cloud_Cover
6 88 100 100 100 82 84 85 67 50 11 89 56 41 5 19 11 63 91 100 70 100 100 100 100 97 100 96 57 73 83 99 100 100 100 100 100 100 100 100 100 100 100 100
99 100 100 100 100 100 100 75 57 88 100 76 72 63 51 41 63 99 93 100 75 100 100 100 100 76 86 94 100 33 100 100 100 100 100 100 100 100 100 100 100 72 100 100
18 42 27 99 51 57 87 85 100 100 99 86 86 100 91 89 25 100 60 66 4 86 100 31 91 98 100 61 100 97 100 100 100 100 100 100 100 100 96 100 100 100 100 100
5 5 14 56 90 66 95 100 100 100 99 80 79 99 85 100 81 100 100 100 49 5 11 31 48 100 100 100 100 100 100 100 100 100 100 100 100 100 100 100 100 100 100 100
78 48 100 100 100 100 100 100 100 100 100 100 96 32 71 100 100 98 100 100 100 95 100 86 100 100 100 100 100 100 100 100 100 100 100 100 100 100 100 100 100 97 97 98
100 100 100 100 100 100 100 100 100 100 100 100 100 69 66 100 98 45 98 100 100 22 48 59 90 98 90 98 100 100 100 100 100 100 100 98 100 100 100 100 100 100 100 100
100 100 100 100 100 100 100 100 100 100 100 100 100 100 100 91 82 99 100 100 100 98 44 10 84 100 100 100 100 100 100 100 100 100 100 96 100 100 100 100 100 100 100 100
100 100 100 100 100 100 100 100 100 100 100 100 92 100 99 83 90 84 100 99 77 100 30 5 92 100 100 100 100 100 100 100 100 100 100 100 100 100 100 100 100 100 100 100
100 100 100 100 100 100 100 100 100 100 100 100 100 100 94 92 96 26 75 53 100 60 84 28 100 100 100 100 100 100 100 62 99 100 100 100 100 100 100 100 95 100 100 100
100 100 100 100 100 100 100 100 100 100 100 100 100 94 41 99 94 82 31 84 100 71 65 59 95 93 100 100 100 91 87 79 37 91 100 100 100 100 100 100 62 81 96 100
100 100 69 39 95 100 84 100 100 100 100 100 100 94 88 42 63 62 43 100 100 100 81 64 91 18 75 91 86 99 75 89 88 77 100 100 100 100 100 93 54 99 100 95
100 100 66 11 24 100 99 100 100 100 100 99 100 82 94 100 98 89 100 95 47 16 33 37 77 16 42 53 12 96 93 95 84 90 32 9 7 100 73 37 100 100 100 94
93 100 83 100 100 97 40 21 95 100 100 74 100 100 87 44 71 95 100 100 87 16 99 86 43 18 86 66 46 55 93 95 100 100 99 74 100 100 100 64 96 100 100 100
98 100 100 100 100 100 95 100 99 92 89 60 100 99 94 5 16 80 74 81 28 80 100 100 96 100 100 100 100 100 100 100 100 100 100 99 94 72 100 91 100 100 100 100
86 100 100 100 100 100 100 100 100 75 51 78 100 100 100 6 5 18 74 66 94 100 100 99 100 100 100 100 100 100 100 100 100 100 100 100 100 100 99 100 100 100 100 100
100 100 100 100 100 100 100 100 100 98 100 99 100 100 100 34 94 17 100 100 100 100 100 100 100 100 100 100 100 100 100 100 100 100 94 95 100 100 100 100 100 100 100 100
98 100 100 100 100 100 100 100 100 100 100 100 100 100 100 89 100 100 100 100 100 100 100 100 100 100 100 100 100 100 100 100 100 100 15 99 100 100 100 100 100 100 100 100
100 99 100 100 100 100 100 100 100 100 100 100 100 100 100 98 100 100 100 100 100 100 100 94 100 100 100 100 100 100 100 100 100 100 19 99 86 100 100 62 100 100 100 100
99 98 100 100 100 100 100 100 100 100 96 99 100 100 100 100 100 100 100 100 100 100 100 100 100 100 100 100 100 100 100 100 100 100 90 67 66 97 100 99 100 100 100 100
100 100 100 100 100 100 100 100 100 100 100 100 100 100 100 100 100 100 96 100 100 100 100 100 100 100 100 100 100 100 100 100 100 100 92 74 72 98 100 100 100 100 100 100
100 100 100 100 100 100 100 100 96 89 99 97 100 100 100 100 100 100 100 96 84 77 100 94 100 100 100 100 100 100 100 100 100 98 100 100 100 100 100 100 91 96 99 100
100 100 100 100 100 100 100 99 99 99 97 68 93 100 100 100 100 100 98 100 100 100 96 99 100 100 100 100 100 100 100 100 100 100 100 100 100 100 100 100 100 100 100 100
100 100 100 100 100 98 100 100 94 86 100 94 99 98 99 100 100 100 100 100 100 100 99 100 100 100 100 98 100 100 99 100 100 100 100 100 100 99 100 100 100 99 100 100
100 100 100 100 100 100 100 100 100 100 100 100 100 100 94 100 100 100 100 100 100 100 100 100 100 100 100 100 100 100 100 98 99 100 100 100 100 100 93 99 73 83 93 99
100 100 100 100 100 100 100 100 100 100 100 100 100 100 100 100 100 100 100 100 100 100 100 100 100 100 100 100 100 100 100 100 100 100 99 100 83 77 96 98 99 99 100 100
100 100 100 99 100 100 100 100 100 100 100 100 100 100 100 100 100 100 100 100 100 100 100 100 100 98 100 100 100 100 100 100 99 98 100 98 97 99 100 99 100 100 100 100
100 100 100 100 100 100 100 100 100 100 100 100 100 100 100 100 99 100 100 100 100 100 100 100 100 100 100 100 100 100 100 100 94 96 97 100 100 100 100 94 100 100 100 100